Content
SEND FEEDBACK

Daily
Averages
Monthly
Summary
United Kingdom

ASHINGTON, ENGLAND


Home > Europe > United Kingdom > England
Elevation: 137 feet     Latitude: 55 18N     Longitude: 001 38W

WEATHER
 
SELECT A DAY
Number of Records: 290,853;   Date Range: 7/1/96 - 11/26/14
 
SHARE

PRINT THIS DATA

[ ← Previous Day ]
WEATHER ALMANAC - JUNE 18, 2014
[ Next Day → ]
[ °C ]   °F
Weather ElementAverageHighLow
Temperature63 °F69.8 °F (4:50 pm)57.2 °F (3:50 am)
Dewpoint56.1 °F60.8 °F (9:50 pm)53.6 °F (7:50 pm)
Humidity78.8 %94 % (3:50 am)60 % (4:50 pm)
Barometer30.31 in30.39 in (12:50 am)30.21 in (7:20 pm)
Wind Speed4.7 mph9.2 mph (10:20 am)
Weather ElementAverage
Visibility6.2 mi
Wind DirectionESE (126.5 °)

Weather ElementTotal
Precipitation---
Heating Degree Days1.5 (Base 65)
Growing Degree Days13.5 (Base 50)
Averaged from 43 records on June 18, 2014
WEATHER CONDITIONS BREAKOUT
WIND DIRECTION BREAKOUT
WEATHER BY HOUR - JUNE 18, 2014
[ °C ]   °F
Local TimeTemperatureDewpointHumidityBarometerVisibilityWind DirectionWind SpeedGust SpeedPrecipitationEventsConditions
12:50 AM59.0 °F55.4 °F88 %30.39 in6.2 miNNW (330°)4.6 mphMostly Cloudy
1:20 AM59.0 °F55.4 °F88 %30.39 in6.2 miNNW (330°)3.5 mphMostly Cloudy
1:50 AM59.0 °F55.4 °F88 %30.39 in6.2 miNNE (30°)4.6 mphMostly Cloudy
2:20 AM59.0 °F55.4 °F88 %30.39 in6.2 miVariable2.3 mphMostly Cloudy
2:50 AM59.0 °F55.4 °F88 %30.39 in6.2 miNorth (360°)4.6 mphMostly Cloudy
3:50 AM57.2 °F55.4 °F94 %30.39 in6.2 miVariable2.3 mphMostly Cloudy
4:20 AM57.2 °F55.4 °F94 %30.36 in6.2 miWNW (300°)2.3 mphMostly Cloudy
4:50 AM57.2 °F55.4 °F94 %30.36 in6.2 miWest (280°)2.3 mphMostly Cloudy
5:20 AM57.2 °F55.4 °F94 %30.36 in6.2 miWNW (290°)2.3 mphMostly Cloudy
5:50 AM59.0 °F55.4 °F88 %30.36 in6.2 miWNW (300°)2.3 mphMostly Cloudy
6:20 AM59.0 °F55.4 °F88 %30.36 in6.2 miWNW (290°)2.3 mphMostly Cloudy
6:50 AM59.0 °F55.4 °F88 %30.39 in6.2 miVariable2.3 mphMostly Cloudy
7:50 AM59.0 °F55.4 °F88 %30.39 in6.2 miVariable3.5 mphMostly Cloudy
8:20 AM60.8 °F57.2 °F88 %30.36 in6.2 miNorth (10°)4.6 mphMostly Cloudy
8:50 AM60.8 °F55.4 °F82 %30.36 in6.2 miNNW (340°)5.8 mphScattered Clouds
9:20 AM60.8 °F55.4 °F82 %30.36 in6.2 miNNE (30°)6.9 mphScattered Clouds
9:50 AM60.8 °F55.4 °F82 %30.36 in6.2 miNE (50°)6.9 mphScattered Clouds
10:20 AM60.8 °F55.4 °F82 %30.36 in6.2 miENE (60°)9.2 mphScattered Clouds
10:50 AM60.8 °F57.2 °F88 %30.36 in6.2 miENE (70°)8.1 mphMostly Cloudy
11:50 AM62.6 °F55.4 °F77 %30.36 in6.2 miENE (70°)5.8 mphMostly Cloudy
12:20 PM62.6 °F55.4 °F77 %30.33 in6.2 miENE (70°)6.9 mphScattered Clouds
12:50 PM64.4 °F57.2 °F77 %30.33 in6.2 miNE (50°)6.9 mphScattered Clouds
1:20 PM64.4 °F57.2 °F77 %30.33 in6.2 miNE (50°)4.6 mphScattered Clouds
1:50 PM66.2 °F57.2 °F73 %30.33 in6.2 miEast (90°)4.6 mphPartly Cloudy
2:20 PM68.0 °F57.2 °F68 %30.33 in6.2 miVariable3.5 mphPartly Cloudy
2:50 PM68.0 °F57.2 °F68 %30.30 in6.2 miVariable3.5 mphPartly Cloudy
3:20 PM68.0 °F59.0 °F73 %30.30 in6.2 miEast (90°)5.8 mphPartly Cloudy
3:50 PM68.0 °F59.0 °F73 %30.30 in6.2 miEast (80°)5.8 mphPartly Cloudy
4:20 PM68.0 °F55.4 °F64 %30.27 in6.2 miENE (70°)5.8 mphPartly Cloudy
4:50 PM69.8 °F55.4 °F60 %30.27 in6.2 miEast (90°)6.9 mphPartly Cloudy
5:20 PM69.8 °F55.4 °F60 %30.27 in6.2 miESE (110°)4.6 mphPartly Cloudy
5:50 PM69.8 °F55.4 °F60 %30.24 in6.2 miEast (100°)5.8 mphPartly Cloudy
6:20 PM69.8 °F55.4 °F60 %30.24 in6.2 miESE (110°)5.8 mphPartly Cloudy
6:50 PM68.0 °F55.4 °F64 %30.24 in6.2 miESE (120°)4.6 mphPartly Cloudy
7:20 PM66.2 °F55.4 °F68 %30.21 in6.2 miESE (120°)4.6 mphPartly Cloudy
7:50 PM66.2 °F53.6 °F64 %30.21 in6.2 miVariable3.5 mphPartly Cloudy
8:20 PM66.2 °F53.6 °F64 %30.21 in6.2 miVariable3.5 mphPartly Cloudy
8:50 PM64.4 °F53.6 °F68 %30.21 in6.2 miSE (130°)4.6 mphPartly Cloudy
9:20 PM62.6 °F55.4 °F77 %30.21 in6.2 miCalmPartly Cloudy
9:50 PM64.4 °F60.8 °F88 %30.21 in6.2 miWSW (250°)5.8 mphPartly Cloudy
10:50 PM62.6 °F59.0 °F88 %30.21 in6.2 miWest (260°)4.6 mphPartly Cloudy
11:20 PM62.6 °F59.0 °F88 %30.21 in6.2 miWest (260°)8.1 mphPartly Cloudy
11:50 PM62.6 °F57.2 °F82 %30.21 in6.2 miWSW (250°)6.9 mphPartly Cloudy
Hourly data recorded from EGNT, located miles away from Ashington, England







STORIES FROM OUR PARTNERS